TimeCST,TemperatureF,Dew PointF,Humidity,Sea Level PressureIn,VisibilityMPH,Wind Direction,Wind SpeedMPH,Gust SpeedMPH,PrecipitationIn,Events,Conditions,WindDirDegrees,DateUTC
12:50 AM,33.8,30.2,87,30.26,8.0,Calm,Calm,-,N/A,,Overcast,0,2013-12-08 06:50:00
12:53 AM,33.1,30.9,92,30.27,8.0,Calm,Calm,-,N/A,,Overcast,0,2013-12-08 06:53:00
1:06 AM,33.8,30.2,87,30.27,7.0,NNW,3.5,-,N/A,,Overcast,330,2013-12-08 07:06:00
1:53 AM,33.1,30.9,92,30.22,6.0,NE,4.6,-,N/A,,Overcast,40,2013-12-08 07:53:00
2:14 AM,33.8,30.2,87,30.22,6.0,North,4.6,-,N/A,,Overcast,10,2013-12-08 08:14:00
2:36 AM,33.8,30.2,87,30.23,8.0,NNW,3.5,-,N/A,,Overcast,340,2013-12-08 08:36:00
2:53 AM,34.0,30.9,89,30.22,8.0,Calm,Calm,-,N/A,,Overcast,0,2013-12-08 08:53:00
3:14 AM,33.8,32.0,93,30.19,7.0,Calm,Calm,-,N/A,,Overcast,0,2013-12-08 09:14:00
3:31 AM,33.8,32.0,93,30.21,8.0,Calm,Calm,-,N/A,,Overcast,0,2013-12-08 09:31:00
3:39 AM,33.8,30.2,87,30.19,8.0,ENE,3.5,-,N/A,,Overcast,60,2013-12-08 09:39:00
3:50 AM,33.8,30.2,87,30.19,8.0,North,3.5,-,N/A,,Overcast,10,2013-12-08 09:50:00
3:53 AM,34.0,30.9,89,30.20,8.0,NNE,3.5,-,N/A,,Overcast,30,2013-12-08 09:53:00
4:53 AM,34.0,30.9,89,30.21,6.0,Calm,Calm,-,N/A,,Overcast,0,2013-12-08 10:53:00
5:53 AM,34.0,32.0,92,30.19,6.0,NE,3.5,-,0.00,,Overcast,40,2013-12-08 11:53:00
6:53 AM,34.0,32.0,92,30.18,7.0,Calm,Calm,-,N/A,,Overcast,0,2013-12-08 12:53:00
7:45 AM,35.6,32.0,87,30.18,7.0,Calm,Calm,-,N/A,,Overcast,0,2013-12-08 13:45:00
7:53 AM,35.1,32.0,89,30.19,7.0,Calm,Calm,-,N/A,,Overcast,0,2013-12-08 13:53:00
8:53 AM,37.0,33.1,86,30.18,7.0,Calm,Calm,-,N/A,,Overcast,0,2013-12-08 14:53:00
9:53 AM,37.0,33.1,86,30.19,8.0,Calm,Calm,-,N/A,,Overcast,0,2013-12-08 15:53:00
10:21 AM,37.4,33.8,87,30.20,2.0,NNW,3.5,-,0.01,Rain,Light Rain,330,2013-12-08 16:21:00
10:33 AM,37.4,33.8,87,30.20,5.0,Calm,Calm,-,0.01,,Overcast,0,2013-12-08 16:33:00
10:41 AM,37.4,33.8,87,30.19,6.0,Calm,Calm,-,0.01,,Overcast,0,2013-12-08 16:41:00
10:53 AM,37.0,34.0,89,30.20,5.0,NW,3.5,-,0.01,,Overcast,310,2013-12-08 16:53:00
11:03 AM,37.4,33.8,87,30.19,5.0,Calm,Calm,-,N/A,,Overcast,0,2013-12-08 17:03:00
11:48 AM,37.4,33.8,87,30.18,9.0,Calm,Calm,-,0.00,,Overcast,0,2013-12-08 17:48:00
11:53 AM,37.9,34.0,86,30.18,9.0,Calm,Calm,-,0.00,,Overcast,0,2013-12-08 17:53:00
12:09 PM,37.4,35.6,93,30.16,8.0,Calm,Calm,-,N/A,,Overcast,0,2013-12-08 18:09:00
12:53 PM,39.0,35.1,86,30.12,9.0,Calm,Calm,-,N/A,,Overcast,0,2013-12-08 18:53:00
1:05 PM,39.2,35.6,87,30.11,10.0,Calm,Calm,-,N/A,,Overcast,0,2013-12-08 19:05:00
1:53 PM,39.9,35.1,83,30.10,9.0,Calm,Calm,-,N/A,,Overcast,0,2013-12-08 19:53:00
2:53 PM,41.0,36.0,82,30.09,9.0,Calm,Calm,-,N/A,,Overcast,0,2013-12-08 20:53:00
3:53 PM,41.0,36.0,82,30.09,9.0,Calm,Calm,-,N/A,,Overcast,0,2013-12-08 21:53:00
4:38 PM,41.0,35.6,81,30.08,8.0,Calm,Calm,-,N/A,,Overcast,0,2013-12-08 22:38:00
4:53 PM,41.0,37.0,86,30.09,8.0,Calm,Calm,-,N/A,,Overcast,0,2013-12-08 22:53:00
5:53 PM,41.0,37.0,86,30.09,9.0,Calm,Calm,-,N/A,,Overcast,0,2013-12-08 23:53:00
6:33 PM,41.0,37.4,87,30.11,9.0,Calm,Calm,-,N/A,,Overcast,0,2013-12-09 00:33:00
6:53 PM,41.0,37.9,89,30.12,9.0,Calm,Calm,-,N/A,,Overcast,0,2013-12-09 00:53:00
7:00 PM,41.0,37.4,87,30.11,10.0,Calm,Calm,-,N/A,,Overcast,0,2013-12-09 01:00:00
7:53 PM,41.0,37.9,89,30.12,10.0,Calm,Calm,-,N/A,,Overcast,0,2013-12-09 01:53:00
8:53 PM,42.1,37.9,85,30.13,10.0,Calm,Calm,-,N/A,,Overcast,0,2013-12-09 02:53:00
9:33 PM,41.0,37.4,87,30.14,10.0,NNW,3.5,-,N/A,,Overcast,340,2013-12-09 03:33:00
9:43 PM,41.0,37.4,87,30.14,9.0,NNW,3.5,-,N/A,,Overcast,330,2013-12-09 03:43:00
9:53 PM,41.0,37.9,89,30.15,9.0,NNW,3.5,-,N/A,,Overcast,330,2013-12-09 03:53:00
10:22 PM,41.0,39.2,93,30.15,3.0,NW,3.5,-,N/A,,Overcast,320,2013-12-09 04:22:00
10:26 PM,41.0,39.2,93,30.15,2.5,Calm,Calm,-,N/A,,Overcast,0,2013-12-09 04:26:00
10:43 PM,41.0,39.2,93,30.15,2.5,Calm,Calm,-,N/A,,Overcast,0,2013-12-09 04:43:00
10:53 PM,41.0,39.0,93,30.15,2.5,Calm,Calm,-,N/A,,Overcast,0,2013-12-09 04:53:00
11:11 PM,41.0,39.2,93,30.14,3.0,Calm,Calm,-,N/A,,Overcast,0,2013-12-09 05:11:00
11:53 PM,41.0,39.0,93,30.15,3.0,Calm,Calm,-,N/A,,Overcast,0,2013-12-09 05:53:00